Regional Weather Roundup
Issued by NWS

Home | Current Version | Previous Version | Graphics & Text | Print | Product List | Glossary On
Versions: 1 2 3 4 5 6 7 8 9 10 11 12 13 14 15 16 17 18 19 20 21 22 23 24 25 26 27 28 29 30 31 32 33 34 35 36 37 38 39 40 41 42 43 44 45 46 47 48 49 50
000
ASUS43 KDTX 220301
RWRMI
MICHIGAN HOURLY REGIONAL WEATHER ROUNDUP
NATIONAL WEATHER SERVICE DETROIT/PONTIAC MI
1000 PM EST TUE FEB 21 2017

NOTE: "FAIR" INDICATES FEW OR NO CLOUDS BELOW 12,000 FEET WITH NO
SIGNIFICANT WEATHER AND/OR OBSTRUCTION TO VISIBILITY.

MIZ047>049-052>055-059>063-066>070-074>076-081>083-220400-
SOUTHEAST LOWER MICHIGAN

CITY           SKY/WX    TMP DP  RH WIND       PRES   REMARKS
ADRIAN         CLOUDY    49  48  97 N5        29.94F
ALMA           FOG       40  39  97 CALM      29.91S VSB<1/4
ANN ARBOR      CLOUDY    48  46  93 CALM      29.93F
BAD AXE        FOG       33  33 100 S3        29.92S VSB 1/4
CARO           FOG       41  41 100 CALM      29.90F VSB<1/4
DETROIT CITY   MOCLDY    46  45  96 CALM      29.94F
DETROIT        CLOUDY    53  48  83 CALM      29.94F
FLINT          PTCLDY    47  46  97 S6        29.92F FOG
GROSSE ILE     MOCLDY    43  42  95 S3        29.93F FOG
HILLSDALE      MOCLDY    45  45 100 CALM      29.92F FOG
HOWELL         PTCLDY    50  48  93 S3        29.92F FOG

CITY           SKY/WX    TMP DP  RH WIND       PRES   REMARKS
JACKSON        PTCLDY    51  48  89 CALM      29.92F
LAMBERTVILLE   CLOUDY    50  47  89 CALM      29.93F
LANSING        CLOUDY    48  46  93 S8        29.92F FOG
LAPEER         FOG       44  44  99 CALM      29.92F VSB 1/4
MASON            N/A     49  49  99 CALM      29.91F FOG
MONROE         PTCLDY    48  47  95 CALM      29.92F
MT. CLEMENS    PTCLDY    39  39 100 CALM      29.91F
PONTIAC        PTCLDY    45  42  89 CALM      29.92F FOG
PORT HOPE        N/A     36  36 100 SE7       29.90S WCI  30
PORT HURON     FOG       37  36  93 CALM      29.93F VSB 1/2
TRI CITIES     FOG       47  47 100 S8        29.90F VSB 1/2
MIDLAND        FOG       37  36  96 CALM      29.90S VSB 1/4
TROY           PTCLDY    48  44  86 SW3       29.94F
SAGINAW HB       N/A     45  41  87 S3        29.90F FOG
$$
MIZ043>046-050>051-056>058-064>065-071>073-077>080-220400-
SOUTHWEST LOWER MICHIGAN

CITY           SKY/WX    TMP DP  RH WIND       PRES   REMARKS
BATTLE CREEK   FOG       46  46 100 S3        29.92F VSB 3/4
BENTON HARBOR  PTCLDY    48  46  93 SE6       29.90F FOG
BIG RAPIDS     PTCLDY    42  40  95 SE3       29.89R FOG
COLDWATER      PTCLDY    46  45  99 SE7       29.92F FOG
FREMONT          N/A     42  42 100 CALM      29.89R FOG
HOLLAND        FOG       51  50  96 S5        29.90S VSB 1/4
GRAND RAPIDS   FOG       51  49  92 SW5       29.90S VSB 1/4
IONIA          FOG       42  42  98 S3        29.90R VSB<1/4
KALAMAZOO      PTCLDY    49  47  93 S3        29.92F
LUDINGTON      PTCLDY    38  38 100 SE5       29.86S WCI  35
MARSHALL       FOG       46  46  98 CALM      29.92S VSB 1/4
MOUNT PLEASANT FOG       40  39  97 CALM      29.89S VSB 1
MUSKEGON       FOG       46  45  96 SE5       29.89F VSB 1/4
SOUTH HAVEN    FOG       49  49 100 CALM      29.91S VSB 1/4
$$
MIZ016>042-220400-
NORTHERN LOWER MICHIGAN

CITY           SKY/WX    TMP DP  RH WIND       PRES   REMARKS
ALPENA         FOG       32  31  96 CALM      29.86F VSB 1/4
BEAVER ISLAND  CLOUDY    48  34  59 SW8       29.81S
BELLAIRE       PTCLDY    33  32  96 CALM      29.85S
CADILLAC       MOCLDY    33  32  95 CALM      29.86S
CHARLEVOIX     MOCLDY    40  34  77 SE5       29.85F
FRANKFORT      CLOUDY    47  39  75 SE5       29.84F
GAYLORD        PTCLDY    37  29  72 S3        29.85S
GRAYLING       CLOUDY    33  32  96 CALM      29.88R
HARBOR SPRINGS CLOUDY    34  33  97 NE3       29.82F
HOUGHTON LAKE  PTCLDY    44  39  82 S7        29.88S
MANISTEE       MOCLDY    37  36  96 CALM      29.86F
OSCODA         FOG       34  33  96 SW7       29.88S VSB 1/4 WCI  28
PELLSTON       PTCLDY    32  29  88 CALM      29.83F
ROGERS CITY    PTCLDY    31  30  96 CALM      29.86S FOG
TRAVERSE CITY  MOCLDY    49  39  68 VRB3      29.83F
$$
MIZ007>008-015-220400-
EASTERN UPPER MICHIGAN

CITY           SKY/WX    TMP DP  RH WIND       PRES   REMARKS
KINROSS        CLEAR     38  37  97 S3        29.83S
MACKINAC ISLAN CLEAR     40  37  88 S8        29.82F WCI  35
NEWBERRY       MOCLDY    37  36  97 S9        29.79S WCI  30
S. S. MARIE    FOG       38  37  97 E5        29.82F VSB 1/4 WCI  34
MUNISING         N/A     47  35  63 S12       29.74F
$$
MIZ004>006-011>014-085-220400-
CENTRAL UPPER MICHIGAN

CITY           SKY/WX    TMP DP  RH WIND       PRES   REMARKS
MANISTIQUE     CLOUDY    38  37  97 S8        29.79F WCI  32
ESCANABA       CLOUDY    40  34  79 S5        29.78F
MENOMINEE      CLOUDY    50  38  63 SW8       29.79F
SAWYER-GWINN   CLEAR     45  30  57 SW7       29.76R
$$
MIZ001>003-009>011-084-220400-
WESTERN UPPER MICHIGAN

CITY           SKY/WX    TMP DP  RH WIND       PRES   REMARKS
IRON MOUNTAIN  CLOUDY    47  32  56 S6        29.74F
HOUGHTON       CLOUDY    40  30  67 NE5       29.70F
COPPER HARBOR    N/A     38  32  79 W10       29.71S WCI  31
IRONWOOD       CLOUDY    50  34  54 S8        29.68F
$$

ABBREVIATIONS USED IN REMARKS
   TC - TEMPERATURE IN CELSIUS
  WCI - WIND CHILL INDEX
   HX - HEAT INDEX
  VSB - VISIBILITY





USA.gov is the U.S. government's official web portal to all federal, state and local government web resources and services.